Location: Baia Mare
(47.6567°N, 23.5850°E)
Time: 02:11:46
(UTC+03:00)

ISS - Pass Details

Date: 09 July 2018
Orbit: 402 x 408 km, 51.6° (Epoch: 18 July)

Event Time Altitude Azimuth Distance (km) Brightness Sun altitude
Exits shadow 03:14:07 32° 157° (SSE) 726 -2.9 -16.2°
Maximum altitude 03:14:25 33° 144° (SE) 714 -2.9 -16.2°
Drops below altitude 10° 03:17:25 10° 79° (ENE) 1,471 -0.5 -16.0°
Sets 03:19:37 0° 69° (ENE) 2,336 0.8 -15.8°
